Date,TemperatureHighF,TemperatureAvgF,TemperatureLowF,DewpointHighF,DewpointAvgF,DewpointLowF,HumidityHigh,HumidityAvg,HumidityLow,PressureMaxIn,PressureMinIn,WindSpeedMaxMPH,WindSpeedAvgMPH,GustSpeedMaxMPH,PrecipitationSumIn
2013-2-1,45,31,23,21,8,0,61,39,21,30.93,30.69,13,2,13,0.00
2013-2-2,57,39,28,35,27,12,92,64,37,30.69,30.52,9,1,9,0.01
2013-2-3,59,45,33,36,30,21,93,59,28,30.58,30.49,15,3,15,0.00
2013-2-4,62,48,37,47,35,28,97,65,28,30.49,30.29,9,1,9,0.06
2013-2-5,69,58,38,52,47,38,99,71,49,30.41,30.30,6,1,6,0.00
2013-2-6,69,69,69,50,50,50,50,50,50,30.36,30.36,2,2,4,0.00
2013-2-7,69,69,69,50,50,50,50,50,50,30.36,30.36,2,2,4,0.00
2013-2-8,69,69,69,50,50,50,50,50,50,30.36,30.36,2,2,4,0.00
2013-2-9,69,69,69,50,50,50,50,50,50,30.36,30.36,2,2,4,0.00
2013-2-10,69,69,69,50,50,50,50,50,50,30.36,30.36,2,2,4,0.00
2013-2-11,69,69,69,50,50,50,50,50,50,30.36,30.36,2,2,4,0.00
2013-2-12,69,69,69,50,50,50,50,50,50,30.36,30.36,2,2,4,0.00
2013-2-13,69,69,69,50,50,50,50,50,50,30.36,30.36,2,2,4,0.00
2013-2-14,69,69,69,50,50,50,50,50,50,30.36,30.36,2,2,4,0.00
2013-2-15,69,69,69,50,50,50,50,50,50,30.36,30.36,2,2,4,0.00
2013-2-16,69,69,69,50,50,50,50,50,50,30.36,30.36,2,2,4,0.00
2013-2-17,69,69,69,50,50,50,50,50,50,30.36,30.36,2,2,4,0.00
2013-2-18,69,69,69,50,50,50,50,50,50,30.36,30.36,2,2,4,0.00
2013-2-19,69,69,69,50,50,50,50,50,50,30.36,30.36,2,2,4,0.00
2013-2-20,69,69,69,50,50,50,50,50,50,30.36,30.36,2,2,4,0.00